"startDT [UTC]","vpos","CH4 [ppm]","stdev(CH4) [ppm]","CO2 [ppm]","stdev(CO2) [ppm]","H2O [ppm]","stdev(H2O)","p_LGR [torr]","T_LGR [C]","mt1_LGR [us]","mt2_LGR [us]","T_ECpre [C]","T_EC1 [C]","T_EC2 [C]","p_inlet [hPa]","p_in [hPa]","p_out [hPa]","T_inlet [C]","RH_inlet [%]","dwpt_inlet [C]","T_vent [C]","RH_vent [%]","dwpt_vent [C]","flow_vent [l min-1]","flow_inlet [l min-1]","dwpt_sample [C]","T_room [C]"
2013-07-04 00:00:00,1.0,1.8845,0.0015,384.97,8.39,447.7,39.4,138.04,30.63,24.66,36.43,0.11,-272.55,-272.61,-45,447,-922,26.1,18.5,0.3,26.0,19.4,0.9,5.73,2.38,-20.8,30.8
2013-07-04 00:01:00,1.0,1.8827,0.0006,375.97,0.27,485.3,30.3,138.04,30.63,24.66,36.44,0.11,-272.55,-272.62,-45,438,-922,26.1,18.8,0.5,26.0,19.7,1.1,5.73,2.43,-20.7,30.8
2013-07-04 00:02:00,1.0,1.8829,0.0009,375.82,0.26,489.0,27.9,138.04,30.64,24.66,36.44,0.11,-272.55,-272.61,-45,437,-922,26.1,18.8,0.5,26.0,19.7,1.1,5.73,2.34,-20.6,30.9
2013-07-04 00:03:00,1.0,1.8825,0.0009,375.82,0.24,492.0,31.9,138.04,30.64,24.66,36.45,0.11,-272.55,-272.62,-45,437,-922,26.1,19.2,0.8,26.0,20.1,1.4,5.73,2.43,-20.6,30.8
2013-07-04 00:04:00,1.0,1.8829,0.0011,375.82,0.24,491.1,29.6,138.04,30.64,24.66,36.44,0.11,-272.55,-272.61,-45,436,-922,26.1,18.5,0.3,26.0,19.4,0.9,5.73,2.34,-20.6,30.8
2013-07-04 00:05:00,1.0,1.8828,0.0008,375.78,0.28,493.7,29.3,138.04,30.64,24.66,36.44,0.11,-272.55,-272.61,-45,439,-922,26.1,18.4,0.2,26.0,19.3,0.8,5.73,2.44,-20.6,30.7
2013-07-04 00:06:00,1.0,1.8825,0.0009,375.79,0.24,499.9,22.7,138.04,30.64,24.66,36.44,0.11,-272.55,-272.62,-45,437,-922,26.1,18.7,0.4,26.0,19.6,1.0,5.73,2.34,-20.5,30.8
2013-07-04 00:07:00,1.0,1.8825,0.0007,375.74,0.26,505.2,30.4,138.04,30.64,24.66,36.45,0.11,-272.55,-272.61,-45,436,-923,26.1,18.9,0.6,26.0,19.8,1.2,5.73,2.44,-20.5,30.8
2013-07-04 00:08:00,1.0,1.8827,0.0008,375.77,0.28,514.6,27.7,138.04,30.64,24.66,36.44,0.11,-272.55,-272.61,-45,437,-922,26.1,18.3,0.2,26.0,19.2,0.7,5.73,2.33,-20.4,30.9
2013-07-04 00:09:00,1.0,1.8827,0.0008,375.80,0.25,512.3,28.1,138.04,30.64,24.66,36.44,0.11,-272.55,-272.61,-45,436,-922,26.1,18.6,0.4,26.0,19.5,1.0,5.73,2.44,-20.4,30.8
2013-07-04 00:10:00,1.0,1.8826,0.0009,375.82,0.33,516.3,29.4,138.04,30.64,24.66,36.44,0.11,-272.55,-272.62,-45,436,-922,26.1,18.6,0.4,26.0,19.5,0.9,5.73,2.33,-20.4,30.8
2013-07-04 00:11:00,1.0,1.8827,0.0009,375.70,0.27,509.7,28.2,138.04,30.65,24.66,36.45,0.11,-272.55,-272.61,-45,437,-922,26.1,19.0,0.7,26.0,19.9,1.3,5.73,2.44,-20.4,30.8
2013-07-04 00:12:00,1.0,1.8826,0.0008,375.73,0.24,519.3,26.2,138.04,30.65,24.66,36.44,0.11,-272.55,-272.62,-45,436,-923,26.2,18.7,0.5,26.1,19.6,1.0,5.73,2.33,-20.3,30.8
2013-07-04 00:13:00,1.0,1.8825,0.0011,375.76,0.23,513.6,25.9,138.04,30.65,24.66,36.45,0.11,-272.55,-272.62,-45,436,-922,26.2,19.0,0.7,26.1,19.9,1.3,5.73,2.45,-20.3,30.9
2013-07-04 00:14:00,1.0,1.8827,0.0008,375.74,0.24,525.2,32.9,138.04,30.65,24.66,36.44,0.11,-272.55,-272.61,-45,436,-922,26.2,19.2,0.9,26.1,20.1,1.4,5.73,2.33,-20.3,30.9
2013-07-04 00:15:00,4.0,1.8978,0.0092,389.92,8.84,511.0,31.9,138.04,30.65,24.66,36.43,0.11,-272.55,-272.62,-45,477,-922,26.2,19.2,0.9,26.1,20.1,1.4,5.73,2.40,-20.3,30.9
2013-07-04 00:16:00,4.0,1.9071,0.0007,399.18,0.29,495.8,30.1,138.04,30.65,24.66,36.43,0.11,-272.55,-272.62,-45,480,-922,26.2,18.4,0.3,26.1,19.2,0.8,5.73,2.33,-20.3,30.9
2013-07-04 00:17:00,4.0,1.9070,0.0007,399.19,0.29,497.7,28.3,138.04,30.65,24.66,36.43,0.11,-272.55,-272.61,-45,484,-922,26.2,18.6,0.4,26.1,19.5,1.0,5.73,2.43,-20.3,30.9
2013-07-04 00:18:00,4.0,1.9072,0.0009,399.23,0.28,493.6,34.4,138.04,30.66,24.66,36.43,0.11,-272.55,-272.61,-45,487,-922,26.2,18.7,0.5,26.1,19.6,1.1,5.73,2.34,-20.3,30.9
2013-07-04 00:19:00,4.0,1.9071,0.0009,399.17,0.29,488.9,28.6,138.04,30.66,24.66,36.43,0.11,-272.55,-272.61,-45,492,-922,26.2,18.7,0.5,26.1,19.6,1.1,5.73,2.42,-20.3,31.0
2013-07-04 00:20:00,4.0,1.9072,0.0008,399.26,0.30,494.3,26.7,138.04,30.66,24.66,36.43,0.11,-272.55,-272.62,-45,493,-923,26.2,18.7,0.5,26.1,19.6,1.1,5.73,2.34,-20.3,31.0
2013-07-04 00:21:00,4.0,1.9069,0.0008,399.15,0.25,474.9,28.4,138.04,30.67,24.66,36.44,0.11,-272.54,-272.61,-45,496,-922,26.2,18.9,0.7,26.1,19.8,1.3,5.73,2.42,-20.4,31.0
2013-07-04 00:22:00,4.0,1.9070,0.0009,399.21,0.32,474.6,29.0,138.04,30.67,24.66,36.43,0.11,-272.55,-272.61,-45,500,-923,26.2,19.2,0.9,26.1,20.2,1.5,5.73,2.35,-20.3,31.0
2013-07-04 00:23:00,4.0,1.9073,0.0008,399.13,0.28,472.9,32.8,138.04,30.67,24.66,36.44,0.11,-272.55,-272.61,-45,502,-923,26.2,19.3,1.0,26.2,20.3,1.6,5.73,2.40,-20.3,31.0
2013-07-04 00:24:00,4.0,1.9070,0.0009,399.15,0.26,474.8,29.5,138.04,30.67,24.66,36.43,0.11,-272.55,-272.61,-45,505,-923,26.3,18.9,0.7,26.2,19.8,1.3,5.73,2.36,-20.3,31.0
2013-07-04 00:25:00,4.0,1.9074,0.0008,399.22,0.29,475.8,30.7,138.04,30.68,24.66,36.43,0.11,-272.55,-272.62,-45,508,-923,26.2,18.5,0.4,26.2,19.4,1.0,5.73,2.40,-20.3,31.0
2013-07-04 00:26:00,4.0,1.9076,0.0008,399.24,0.24,483.5,29.3,138.04,30.68,24.66,36.43,0.11,-272.55,-272.61,-45,508,-923,26.3,18.4,0.4,26.2,19.2,0.9,5.73,2.37,-20.4,31.0
2013-07-04 00:27:00,4.0,1.9073,0.0008,399.22,0.23,465.2,28.1,138.04,30.68,24.66,36.43,0.11,-272.55,-272.62,-45,513,-923,26.3,18.4,0.4,26.2,19.2,0.9,5.73,2.38,-20.4,31.0
2013-07-04 00:28:00,4.0,1.9075,0.0008,399.24,0.28,463.5,28.0,138.04,30.69,24.66,36.43,0.11,-272.55,-272.61,-45,514,-923,26.3,18.5,0.5,26.2,19.3,1.0,5.73,2.39,-20.4,31.1
2013-07-04 00:29:00,4.0,1.9073,0.0008,399.22,0.30,459.9,28.6,138.04,30.69,24.66,36.43,0.11,-272.55,-272.62,-45,518,-922,26.3,19.0,0.8,26.3,19.8,1.3,5.73,2.36,-20.4,31.1
2013-07-04 00:30:00,5.0,1.7585,0.0929,369.45,18.54,460.4,25.0,138.04,30.69,24.67,36.44,0.11,-272.55,-272.61,-45,501,-923,26.3,18.9,0.8,26.3,19.8,1.4,5.73,2.44,-20.5,31.1
2013-07-04 00:31:00,5.0,1.6625,0.0008,350.21,0.25,469.1,32.9,138.04,30.69,24.66,36.45,0.11,-272.54,-272.61,-45,494,-923,26.3,18.7,0.6,26.3,19.5,1.1,5.73,2.35,-20.5,31.1
2013-07-04 00:32:00,5.0,1.6619,0.0008,350.09,0.20,465.0,34.4,138.04,30.69,24.67,36.45,0.11,-272.55,-272.61,-45,494,-923,26.3,18.7,0.6,26.3,19.6,1.3,5.73,2.42,-20.6,31.1
2013-07-04 00:33:00,5.0,1.6619,0.0009,350.06,0.25,458.9,31.3,138.04,30.70,24.67,36.45,0.11,-272.55,-272.62,-45,494,-923,26.4,18.5,0.6,26.3,19.4,1.1,5.73,2.33,-20.6,31.1
2013-07-04 00:34:00,5.0,1.6620,0.0008,350.07,0.26,458.3,29.3,138.04,30.70,24.67,36.45,0.11,-272.55,-272.61,-45,492,-923,26.4,18.6,0.6,26.3,19.4,1.2,5.73,2.43,-20.7,31.1
2013-07-04 00:35:00,5.0,1.6623,0.0008,350.05,0.23,451.6,28.2,138.04,30.70,24.66,36.45,0.11,-272.54,-272.61,-45,493,-923,26.4,18.7,0.7,26.4,19.5,1.3,5.73,2.32,-20.8,31.2
2013-07-04 00:36:00,5.0,1.6623,0.0007,350.02,0.28,445.5,31.4,138.04,30.71,24.67,36.45,0.11,-272.55,-272.61,-45,492,-923,26.4,19.1,1.0,26.4,19.9,1.5,5.73,2.43,-20.8,31.2
2013-07-04 00:37:00,5.0,1.6624,0.0007,350.12,0.23,438.9,29.8,138.04,30.71,24.66,36.45,0.11,-272.55,-272.62,-45,492,-923,26.4,18.4,0.5,26.4,19.3,1.1,5.73,2.31,-20.9,31.1
2013-07-04 00:38:00,5.0,1.6622,0.0009,349.98,0.27,435.4,25.8,138.04,30.72,24.66,36.46,0.11,-272.55,-272.61,-45,492,-923,26.4,18.3,0.4,26.4,19.1,0.9,5.73,2.44,-20.9,31.2
2013-07-04 00:39:00,5.0,1.6625,0.0009,349.90,0.24,427.5,27.6,138.04,30.72,24.66,36.46,0.11,-272.55,-272.61,-45,491,-923,26.4,18.6,0.7,26.4,19.4,1.2,5.73,2.30,-21.0,31.2
2013-07-04 00:40:00,5.0,1.6623,0.0009,350.01,0.30,426.0,34.1,138.04,30.72,24.67,36.45,0.11,-272.55,-272.61,-45,491,-923,26.5,18.7,0.7,26.4,19.5,1.3,5.73,2.44,-21.1,31.2
2013-07-04 00:41:00,5.0,1.6623,0.0007,350.08,0.22,415.8,26.6,138.04,30.73,24.67,36.45,0.11,-272.55,-272.61,-45,491,-923,26.5,18.5,0.6,26.4,19.4,1.2,5.73,2.31,-21.2,31.2
2013-07-04 00:42:00,5.0,1.6624,0.0010,350.01,0.28,415.4,31.9,138.04,30.73,24.67,36.45,0.11,-272.55,-272.61,-45,491,-923,26.5,18.3,0.5,26.4,19.2,1.1,5.73,2.43,-21.3,31.3
2013-07-04 00:43:00,5.0,1.6621,0.0008,350.02,0.27,403.9,27.8,138.04,30.74,24.67,36.45,0.11,-272.55,-272.61,-45,492,-923,26.5,18.4,0.6,26.5,19.2,1.1,5.73,2.32,-21.4,31.2
2013-07-04 00:44:00,5.0,1.6625,0.0009,350.01,0.30,395.8,30.4,138.04,30.74,24.67,36.45,0.11,-272.55,-272.61,-45,490,-923,26.5,18.4,0.5,26.5,19.2,1.1,5.73,2.41,-21.5,31.2
2013-07-04 00:45:00,2.0,1.7831,0.0746,377.25,16.82,379.3,30.1,138.04,30.75,24.66,36.44,0.11,-272.55,-272.61,-45,493,-923,26.5,18.6,0.7,26.5,19.4,1.3,5.73,2.39,-21.6,31.3
2013-07-04 00:46:00,2.0,1.8592,0.0007,394.58,0.33,372.1,26.2,138.04,30.75,24.66,36.44,0.11,-272.55,-272.61,-45,495,-923,26.5,18.0,0.3,26.5,18.8,0.9,5.73,2.38,-21.7,31.3
2013-07-04 00:47:00,2.0,1.8596,0.0008,394.68,0.26,375.2,27.6,138.04,30.76,24.66,36.44,0.11,-272.55,-272.61,-45,496,-923,26.6,17.9,0.2,26.5,18.7,0.8,5.73,2.38,-21.7,31.3
2013-07-04 00:48:00,2.0,1.8596,0.0010,394.64,0.28,362.1,24.1,138.04,30.76,24.66,36.44,0.11,-272.54,-272.61,-45,497,-923,26.6,17.9,0.2,26.5,18.7,0.8,5.73,2.35,-21.8,31.3
2013-07-04 00:49:00,2.0,1.8596,0.0007,394.69,0.34,362.8,35.7,138.04,30.76,24.66,36.44,0.11,-272.55,-272.61,-45,497,-923,26.6,18.6,0.8,26.5,19.4,1.3,5.73,2.42,-21.9,31.3
2013-07-04 00:50:00,2.0,1.8596,0.0008,394.67,0.34,345.1,32.4,138.04,30.77,24.66,36.44,0.11,-272.54,-272.61,-45,498,-923,26.6,18.2,0.5,26.5,19.0,1.0,5.73,2.32,-22.0,31.3
2013-07-04 00:51:00,2.0,1.8594,0.0008,394.73,0.27,344.5,30.9,138.04,30.77,24.67,36.43,0.11,-272.55,-272.61,-45,498,-923,26.6,18.4,0.6,26.6,19.2,1.2,5.73,2.44,-22.1,31.3
2013-07-04 00:52:00,2.0,1.8598,0.0008,394.79,0.26,336.2,32.1,138.04,30.77,24.66,36.43,0.11,-272.55,-272.61,-45,498,-923,26.6,18.3,0.5,26.6,19.1,1.1,5.73,2.31,-22.2,31.3
2013-07-04 00:53:00,2.0,1.8595,0.0009,394.72,0.30,323.7,32.4,138.04,30.78,24.66,36.44,0.11,-272.55,-272.61,-45,499,-923,26.6,17.8,0.2,26.6,18.6,0.8,5.73,2.44,-22.3,31.4
2013-07-04 00:54:00,2.0,1.8598,0.0009,394.82,0.26,319.3,34.2,138.04,30.79,24.66,36.43,0.11,-272.55,-272.61,-45,498,-923,26.6,18.0,0.3,26.6,18.7,0.9,5.73,2.32,-22.4,31.4
2013-07-04 00:55:00,2.0,1.8597,0.0007,394.82,0.30,307.6,28.5,138.04,30.79,24.66,36.43,0.11,-272.55,-272.61,-45,499,-923,26.6,18.3,0.6,26.6,19.1,1.2,5.73,2.41,-22.5,31.4
2013-07-04 00:56:00,2.0,1.8597,0.0009,394.88,0.28,313.1,27.1,138.04,30.80,24.66,36.43,0.11,-272.55,-272.61,-45,499,-923,26.7,18.6,0.8,26.7,19.4,1.4,5.73,2.35,-22.6,31.4
2013-07-04 00:57:00,2.0,1.8599,0.0007,394.92,0.27,302.9,26.9,138.03,30.80,24.66,36.43,0.11,-272.55,-272.61,-45,498,-923,26.7,17.9,0.3,26.7,18.7,0.9,5.73,2.37,-22.7,31.4
2013-07-04 00:58:00,2.0,1.8600,0.0009,394.84,0.27,290.2,31.1,138.03,30.81,24.66,36.43,0.11,-272.55,-272.61,-45,499,-923,26.7,18.1,0.5,26.7,18.9,1.0,5.73,2.39,-22.8,31.4
2013-07-04 00:59:00,2.0,1.8597,0.0009,394.85,0.27,282.7,32.1,138.03,30.81,24.66,36.43,0.11,-272.55,-272.61,-45,499,-923,26.7,17.9,0.4,26.7,18.7,0.9,5.73,2.33,-22.9,31.5
2013-07-04 01:00:00,3.0,1.8780,0.0116,399.77,3.10,300.6,30.5,138.03,30.81,24.66,36.44,0.11,-272.55,-272.62,-45,438,-923,26.7,17.9,0.3,26.7,18.6,0.9,5.73,2.44,-23.1,31.5
2013-07-04 01:01:00,3.0,1.8899,0.0009,402.96,0.23,295.8,32.6,138.03,30.81,24.66,36.44,0.11,-272.54,-272.62,-45,438,-923,26.7,18.3,0.7,26.7,19.1,1.2,5.73,2.31,-23.2,31.5
2013-07-04 01:02:00,3.0,1.8903,0.0009,403.09,0.28,294.6,24.2,138.03,30.82,24.66,36.43,0.11,-272.55,-272.61,-46,437,-923,26.8,18.1,0.5,26.7,18.9,1.1,5.73,2.44,-23.3,31.5
2013-07-04 01:03:00,3.0,1.8901,0.0008,403.08,0.33,290.6,31.7,138.03,30.82,24.66,36.43,0.11,-272.55,-272.61,-45,438,-923,26.8,17.7,0.3,26.7,18.5,0.8,5.73,2.31,-23.4,31.5
2013-07-04 01:04:00,3.0,1.8901,0.0008,403.13,0.26,270.9,28.8,138.03,30.83,24.66,36.43,0.11,-272.55,-272.61,-45,437,-923,26.8,17.9,0.4,26.8,18.7,0.9,5.73,2.44,-23.5,31.5
2013-07-04 01:05:00,3.0,1.8904,0.0009,403.13,0.28,265.9,30.4,138.03,30.83,24.66,36.43,0.11,-272.54,-272.61,-45,437,-923,26.8,17.5,0.1,26.8,18.3,0.7,5.73,2.31,-23.6,31.5
2013-07-04 01:06:00,3.0,1.8905,0.0009,403.09,0.30,259.8,36.5,138.03,30.84,24.66,36.43,0.11,-272.55,-272.62,-46,438,-923,26.8,17.2,-0.2,26.8,17.9,0.4,5.73,2.42,-23.6,31.5
2013-07-04 01:07:00,3.0,1.8905,0.0009,403.08,0.31,247.1,31.7,138.03,30.85,24.66,36.43,0.11,-272.55,-272.61,-45,438,-923,26.8,17.2,-0.1,26.8,18.0,0.4,5.73,2.33,-23.8,31.4
2013-07-04 01:08:00,3.0,1.8907,0.0009,403.04,0.28,250.1,33.5,138.03,30.85,24.66,36.43,0.11,-272.55,-272.61,-45,439,-923,26.8,17.4,0.1,26.8,18.2,0.6,5.73,2.39,-23.9,31.4
2013-07-04 01:09:00,3.0,1.8905,0.0009,403.01,0.28,230.9,26.9,138.03,30.86,24.66,36.44,0.11,-272.54,-272.61,-45,439,-923,26.8,16.8,-0.4,26.8,17.6,0.2,5.73,2.37,-24.0,31.4
2013-07-04 01:10:00,3.0,1.8904,0.0009,403.09,0.31,225.3,30.3,138.03,30.87,24.67,36.43,0.11,-272.55,-272.61,-45,439,-923,26.8,16.8,-0.4,26.8,17.5,0.1,5.73,2.36,-24.1,31.5
2013-07-04 01:11:00,3.0,1.8904,0.0008,403.01,0.29,224.8,27.2,138.03,30.87,24.66,36.44,0.11,-272.55,-272.61,-46,440,-923,26.8,17.0,-0.3,26.8,17.7,0.3,5.73,2.40,-24.3,31.5
2013-07-04 01:12:00,3.0,1.8908,0.0009,403.11,0.23,214.8,27.8,138.03,30.88,24.66,36.44,0.11,-272.55,-272.61,-45,440,-923,26.8,17.1,-0.2,26.8,17.8,0.4,5.73,2.33,-24.4,31.5
2013-07-04 01:13:00,3.0,1.8910,0.0010,403.16,0.29,208.8,26.7,138.03,30.88,24.66,36.43,0.11,-272.55,-272.61,-46,441,-923,26.9,17.2,-0.1,26.9,18.0,0.5,5.73,2.43,-24.5,31.5
2013-07-04 01:14:00,3.0,1.8907,0.0009,403.09,0.29,198.5,24.2,138.03,30.89,24.66,36.43,0.11,-272.54,-272.61,-45,441,-923,26.8,17.4,0.0,26.9,18.1,0.6,5.73,2.31,-24.6,31.5
2013-07-04 01:15:00,0.0,1.8896,0.0012,399.30,2.41,164.4,36.8,138.03,30.89,24.66,36.43,0.11,-272.55,-272.61,-46,556,-923,26.9,17.5,0.2,26.8,18.3,0.7,5.73,2.44,-24.8,31.4
2013-07-04 01:16:00,0.0,1.8885,0.0009,396.87,0.28,143.0,28.4,138.03,30.89,24.67,36.43,0.11,-272.55,-272.61,-46,558,-923,26.9,17.6,0.2,26.9,18.4,0.8,5.73,2.32,-24.9,31.5
2013-07-04 01:17:00,0.0,1.8887,0.0012,396.92,0.29,140.0,33.6,138.03,30.90,24.66,36.43,0.11,-272.55,-272.61,-46,557,-923,26.9,17.4,0.1,26.8,18.2,0.7,5.73,2.45,-25.0,31.5
2013-07-04 01:18:00,0.0,1.8877,0.0007,397.08,0.25,132.8,29.2,138.03,30.90,24.66,36.43,0.11,-272.55,-272.62,-46,558,-923,26.9,16.9,-0.3,26.9,17.7,0.3,5.73,2.32,-25.0,31.6
2013-07-04 01:19:00,0.0,1.8882,0.0010,397.03,0.28,128.5,32.3,138.03,30.90,24.66,36.43,0.11,-272.54,-272.61,-46,558,-923,26.9,16.7,-0.5,26.9,17.4,0.1,5.73,2.44,-25.2,31.5
2013-07-04 01:20:00,0.0,1.8881,0.0010,397.08,0.28,121.7,33.6,138.03,30.91,24.66,36.44,0.11,-272.55,-272.61,-46,557,-923,26.9,16.8,-0.4,26.9,17.5,0.2,5.73,2.34,-25.2,31.4
2013-07-04 01:21:00,0.0,1.8882,0.0010,396.92,0.28,114.9,35.3,138.03,30.92,24.66,36.44,0.11,-272.55,-272.61,-46,558,-923,26.9,17.0,-0.2,26.9,17.7,0.3,5.73,2.42,-25.3,31.5
2013-07-04 01:22:00,0.0,1.8884,0.0009,396.94,0.27,112.6,29.5,138.03,30.92,24.66,36.43,0.11,-272.55,-272.61,-46,557,-923,26.9,17.1,-0.2,26.9,17.8,0.4,5.73,2.36,-25.4,31.5
2013-07-04 01:23:00,0.0,1.8882,0.0009,396.85,0.28,112.5,29.2,138.03,30.92,24.66,36.44,0.11,-272.55,-272.62,-46,558,-923,26.9,17.1,-0.1,26.9,17.8,0.4,5.73,2.39,-25.5,31.5
2013-07-04 01:24:00,0.0,1.8888,0.0010,396.76,0.26,108.1,35.6,138.03,30.93,24.66,36.44,0.11,-272.55,-272.61,-46,558,-923,26.9,17.9,0.5,26.9,18.6,1.0,5.73,2.40,-25.5,31.5
2013-07-04 01:25:00,0.0,1.8880,0.0008,396.77,0.32,105.3,33.5,138.03,30.94,24.66,36.43,0.11,-272.55,-272.61,-46,558,-923,26.9,17.6,0.2,26.9,18.3,0.8,5.73,2.35,-25.6,31.5
2013-07-04 01:26:00,0.0,1.8880,0.0007,396.87,0.37,109.4,33.2,138.03,30.94,24.67,36.44,0.11,-272.55,-272.61,-46,558,-923,26.9,17.7,0.3,26.9,18.5,0.9,5.73,2.44,-25.6,31.6
2013-07-04 01:27:00,0.0,1.8879,0.0010,397.13,0.29,102.5,33.7,138.03,30.95,24.67,36.43,0.11,-272.55,-272.62,-46,558,-923,26.9,16.9,-0.3,26.9,17.7,0.3,5.73,2.32,-25.6,31.5
2013-07-04 01:28:00,0.0,1.8882,0.0011,397.06,0.31,107.6,30.5,138.03,30.96,24.66,36.44,0.11,-272.55,-272.61,-46,558,-923,26.9,17.0,-0.2,26.9,17.7,0.3,5.73,2.45,-25.7,31.4
2013-07-04 01:29:00,0.0,1.8880,0.0010,396.99,0.33,99.7,35.7,138.03,30.96,24.66,36.44,0.11,-272.54,-272.61,-46,558,-923,26.8,17.4,0.0,26.8,18.1,0.6,5.73,2.33,-25.8,31.4
2013-07-04 01:30:00,0.0,1.8882,0.0009,397.03,0.27,92.5,24.8,138.03,30.97,24.66,36.44,0.11,-272.55,-272.62,-46,558,-923,26.8,17.3,-0.1,26.8,18.0,0.5,5.73,2.42,-25.8,31.3
2013-07-04 01:31:00,0.0,1.8879,0.0009,396.94,0.27,100.2,31.2,138.03,30.97,24.67,36.43,0.11,-272.55,-272.61,-46,558,-922,26.7,17.4,-0.0,26.7,18.2,0.6,5.73,2.38,-25.9,31.2
2013-07-04 01:32:00,0.0,1.8882,0.0009,396.91,0.25,84.8,27.8,138.03,30.97,24.66,36.44,0.11,-272.54,-272.61,-45,558,-923,26.6,17.5,-0.0,26.6,18.3,0.6,5.73,2.36,-25.9,31.2
2013-07-04 01:33:00,0.0,1.8877,0.0009,396.99,0.27,88.5,33.8,138.03,30.98,24.67,36.44,0.11,-272.55,-272.62,-46,557,-923,26.6,17.7,0.0,26.6,18.4,0.6,5.73,2.44,-25.9,31.1
2013-07-04 01:34:00,0.0,1.8877,0.0010,397.20,0.28,89.5,32.0,138.04,30.98,24.66,36.42,0.11,-272.55,-272.62,-45,557,-923,26.5,17.3,-0.3,26.5,18.1,0.3,5.73,2.32,-25.9,31.1
2013-07-04 01:35:00,0.0,1.8872,0.0009,397.08,0.28,86.7,31.7,138.04,30.98,24.67,36.44,0.11,-272.55,-272.62,-46,557,-922,26.5,17.4,-0.3,26.5,18.2,0.4,5.73,2.45,-25.9,31.0
2013-07-04 01:36:00,0.0,1.8876,0.0010,397.11,0.32,85.0,32.6,138.04,30.98,24.67,36.44,0.11,-272.55,-272.61,-45,557,-922,26.4,17.3,-0.4,26.4,18.1,0.2,5.73,2.33,-25.8,31.0
2013-07-04 01:37:00,0.0,1.8874,0.0010,396.97,0.24,79.4,33.2,138.04,30.98,24.66,36.44,0.11,-272.55,-272.62,-45,557,-922,26.3,17.6,-0.2,26.4,18.4,0.4,5.73,2.44,-25.8,31.0
2013-07-04 01:38:00,0.0,1.8874,0.0009,397.23,0.27,89.0,27.3,138.04,30.98,24.66,36.43,0.11,-272.55,-272.61,-45,557,-922,26.3,17.3,-0.5,26.3,18.1,0.1,5.73,2.35,-25.8,30.9
2013-07-04 01:39:00,0.0,1.8875,0.0009,397.15,0.28,91.0,24.6,138.04,30.98,24.66,36.43,0.11,-272.55,-272.62,-45,560,-922,26.3,17.3,-0.5,26.3,18.1,0.1,5.73,2.42,-25.7,30.8
2013-07-04 01:40:00,0.0,1.8875,0.0010,397.11,0.31,89.1,31.2,138.03,30.99,24.67,36.44,0.11,-272.55,-272.61,-45,571,-922,26.2,17.3,-0.6,26.2,18.0,0.0,5.73,2.37,-25.7,30.8
2013-07-04 01:41:00,0.0,,,,,,,,,,,0.11,-272.55,-272.61,-45,588,-928,26.2,17.7,-0.2,26.2,18.5,0.3,5.73,2.37,-25.6,30.8
"startDT [UTC]","vpos","CH4 [ppm]","stdev(CH4) [ppm]","CO2 [ppm]","stdev(CO2) [ppm]","H2O [ppm]","stdev(H2O)","p_LGR [torr]","T_LGR [C]","mt1_LGR [us]","mt2_LGR [us]","T_ECpre [C]","T_EC1 [C]","T_EC2 [C]","p_inlet [hPa]","p_in [hPa]","p_out [hPa]","T_inlet [C]","RH_inlet [%]","dwpt_inlet [C]","T_vent [C]","RH_vent [%]","dwpt_vent [C]","flow_vent [l min-1]","flow_inlet [l min-1]","dwpt_sample [C]","T_room [C]"
2013-07-04 07:42:00,0.0,,,,,,,,,,,0.08,-272.74,-272.76,13,-1,-1,21.7,28.2,2.4,21.7,22.9,-0.4,-1.68,-1.46,-16.5,21.0
2013-07-04 07:43:00,0.0,,,,,,,,,,,0.08,-272.73,-272.76,13,-2,-0,21.8,28.1,2.5,21.8,22.9,-0.3,-1.68,-1.46,-16.5,21.2
2013-07-04 07:44:00,0.0,,,,,,,,,,,0.08,-272.74,-272.76,13,-2,-0,21.8,28.1,2.6,21.9,22.9,-0.2,-1.68,-1.46,-16.5,21.5
2013-07-04 07:45:00,0.0,,,,,,,,,,,0.08,-272.74,-272.75,13,-2,-1,21.9,28.1,2.6,21.9,22.9,-0.2,-1.68,-1.46,-16.1,21.9
2013-07-04 07:46:00,0.0,,,,,,,,,,,0.08,-272.73,-272.75,13,-2,-1,22.0,28.0,2.6,22.0,22.9,-0.2,-1.68,-1.46,-15.4,22.2
2013-07-04 07:47:00,0.0,,,,,,,,,,,0.08,-272.73,-272.75,12,-3,-1,22.0,28.0,2.6,22.0,22.9,-0.1,-1.68,-1.46,-15.4,22.5
2013-07-04 07:48:00,0.0,,,,,,,,,,,0.08,-272.73,-272.75,12,-3,-1,22.1,27.9,2.7,22.1,22.9,-0.1,-1.68,-1.46,-15.5,22.9
2013-07-04 07:49:00,0.0,,,,,,,,,,,0.08,-272.73,-272.75,12,-3,-1,22.1,27.9,2.7,22.1,22.9,-0.1,-1.68,-1.46,-15.5,23.2
2013-07-04 07:50:00,0.0,,,,,,,,,,,0.08,-272.72,-272.75,12,-3,-1,22.1,27.9,2.7,22.1,22.9,-0.0,-1.68,-1.46,-15.5,23.5
2013-07-04 07:51:00,0.0,,,,,,,,,,,0.08,-272.73,-272.75,12,-3,-1,22.2,27.8,2.7,22.2,22.9,-0.0,-1.68,-1.46,-15.5,23.8
2013-07-04 07:52:00,0.0,,,,,,,,,,,0.08,-272.73,-272.75,12,-3,-1,22.2,27.8,2.7,22.2,22.9,-0.0,-1.68,-1.46,-15.5,24.1
2013-07-04 07:53:00,0.0,,,,,,,,,,,0.08,-272.73,-272.75,12,-3,-1,22.2,27.8,2.7,22.2,22.9,-0.0,-1.68,-1.46,-15.4,24.4
2013-07-04 07:54:00,0.0,,,,,,,,,,,0.08,-272.73,-272.75,12,-3,-2,22.2,27.7,2.7,22.2,22.9,0.0,-1.68,-1.46,-15.4,24.6
2013-07-04 07:55:00,0.0,,,,,,,,,,,0.08,-272.72,-272.75,12,-4,-2,22.3,27.7,2.8,22.3,22.9,0.0,-1.68,-1.46,-15.4,24.9
2013-07-04 07:56:00,0.0,,,,,,,,,,,0.08,-272.72,-272.75,11,-4,-2,22.3,27.7,2.8,22.3,22.9,0.1,-1.68,-1.46,-15.4,25.1
2013-07-04 07:57:00,0.0,,,,,,,,,,,0.08,-272.72,-272.74,11,-4,-2,22.3,27.7,2.7,22.3,22.9,0.1,-1.68,-1.46,-15.4,25.3
2013-07-04 07:58:00,0.0,,,,,,,,,,,0.08,-272.72,-272.74,11,-4,-2,22.3,27.6,2.7,22.3,22.9,0.1,-1.68,-1.46,-15.4,25.5
2013-07-04 07:59:00,0.0,,,,,,,,,,,0.08,-272.72,-272.74,11,-4,-2,22.4,27.6,2.8,22.4,22.9,0.1,-1.68,-1.46,-15.3,25.7
2013-07-04 08:00:00,1.0,,,,,,,,,,,0.08,-272.71,-272.72,11,-4,-2,22.4,27.6,2.8,22.4,22.9,0.2,-1.68,-1.46,-15.3,25.9
2013-07-04 08:01:00,1.0,,,,,,,,,,,0.08,-272.72,-272.74,11,-4,-2,22.4,27.6,2.8,22.4,22.9,0.2,-1.68,-1.46,-15.3,26.0
2013-07-04 08:02:00,1.0,,,,,,,,,,,0.08,-272.72,-272.74,11,-5,-3,22.4,27.5,2.7,22.4,22.9,0.2,-1.68,-1.46,-15.2,26.1
2013-07-04 08:03:00,1.0,,,,,,,,,,,0.08,-272.72,-272.74,11,-5,-3,22.4,27.5,2.8,22.4,22.9,0.2,-1.68,-1.46,-15.2,26.3
2013-07-04 08:04:00,1.0,,,,,,,,,,,0.08,-272.72,-272.74,10,-5,-3,22.4,27.4,2.7,22.5,22.9,0.2,-1.68,-1.46,-15.2,26.4
2013-07-04 08:05:00,1.0,,,,,,,,,,,0.08,-272.71,-272.74,10,-5,-3,22.5,27.4,2.7,22.5,22.9,0.2,-1.68,-1.46,-15.2,26.6
2013-07-04 08:06:00,1.0,,,,,,,,,,,0.08,-272.72,-272.74,10,-5,-3,22.5,27.3,2.7,22.5,22.9,0.3,-1.68,-1.46,-15.1,26.7
2013-07-04 08:07:00,1.0,,,,,,,,,,,0.08,-272.72,-272.74,10,-5,-3,22.5,27.3,2.7,22.5,22.9,0.3,-1.68,-1.46,-15.1,26.8
2013-07-04 08:08:00,1.0,,,,,,,,,,,0.08,-272.72,-272.74,10,-5,-3,22.5,27.2,2.7,22.6,22.9,0.3,-1.68,-1.46,-15.1,26.9
2013-07-04 08:09:00,1.0,,,,,,,,,,,0.08,-272.72,-272.74,10,-5,-3,22.6,27.2,2.7,22.6,22.9,0.3,-1.68,-1.46,-15.1,27.0
2013-07-04 08:10:00,1.0,,,,,,,,,,,0.08,-272.71,-272.74,10,-5,-3,22.6,27.2,2.7,22.6,22.9,0.3,-1.68,-1.46,-15.0,27.1
2013-07-04 08:11:00,1.0,,,,,,,,,,,0.08,-272.72,-272.74,10,-6,-3,22.6,27.1,2.7,22.7,22.9,0.4,-1.68,-1.46,-15.0,27.2
2013-07-04 08:12:00,1.0,,,,,,,,,,,0.08,-272.72,-272.74,10,-6,-3,22.7,27.1,2.7,22.7,22.9,0.4,-1.68,-1.46,-15.0,27.3
2013-07-04 08:13:00,1.0,,,,,,,,,,,0.08,-272.72,-272.73,10,-6,-3,22.7,27.0,2.7,22.7,22.8,0.4,-1.68,-1.46,-14.9,27.4
2013-07-04 08:14:00,1.0,,,,,,,,,,,0.08,-272.72,-272.74,10,-6,-3,22.8,27.0,2.8,22.7,22.9,0.4,-1.68,-1.46,-14.9,27.5
2013-07-04 08:15:00,4.0,,,,,,,,,,,0.08,-272.72,-272.74,9,-5,-4,22.8,26.9,2.7,22.8,22.8,0.5,-1.68,-1.46,-24.4,27.6
2013-07-04 08:16:00,4.0,,,,,,,,,,,0.08,-272.71,-272.74,9,-6,-4,22.8,26.9,2.8,22.8,22.8,0.5,-1.68,-1.46,-23.7,27.7
2013-07-04 08:17:00,4.0,,,,,,,,,,,0.08,-272.71,-272.74,9,-7,-5,22.8,26.8,2.8,22.8,22.8,0.5,-1.68,-1.46,-22.9,27.8
2013-07-04 08:18:00,4.0,,,,,,,,,,,0.08,-272.72,-272.74,9,-6,-4,22.9,26.8,2.8,22.9,22.9,0.5,-1.68,-1.46,-22.4,27.8
2013-07-04 08:19:00,4.0,,,,,,,,,,,0.08,-272.72,-272.74,8,-6,-3,22.9,26.7,2.8,22.9,22.8,0.6,-1.68,-1.46,-22.0,27.9
2013-07-04 08:20:00,4.0,,,,,,,,,,,0.08,-272.72,-272.73,9,-6,-4,22.9,26.7,2.8,22.9,22.8,0.6,-1.68,-1.46,-21.6,28.0
2013-07-04 08:21:00,4.0,,,,,,,,,,,0.08,-272.72,-272.74,9,-6,-4,23.0,26.6,2.8,23.0,22.8,0.6,-1.68,-1.46,-21.3,28.2
2013-07-04 08:22:00,4.0,,,,,,,,,,,0.08,-272.72,-272.74,9,-7,-4,23.0,26.6,2.8,23.0,22.8,0.6,-1.68,-1.46,-21.1,28.3
2013-07-04 08:23:00,4.0,,,,,,,,,,,0.08,-272.72,-272.73,9,-7,-4,23.1,26.5,2.8,23.1,22.8,0.7,-1.68,-1.46,-20.8,28.4
2013-07-04 08:24:00,4.0,,,,,,,,,,,0.08,-272.72,-272.74,9,-7,-4,23.1,26.5,2.8,23.2,22.8,0.8,-1.68,-1.46,-20.6,28.4
2013-07-04 08:25:00,4.0,,,,,,,,,,,0.08,-272.72,-272.74,9,-7,-4,23.2,26.4,2.8,23.1,22.8,0.7,-1.68,-1.46,-20.4,28.5
2013-07-04 08:26:00,4.0,,,,,,,,,,,0.08,-272.72,-272.74,9,-7,-4,23.2,26.4,2.8,23.2,22.8,0.8,-1.68,-1.46,-20.3,28.5
2013-07-04 08:27:00,4.0,,,,,,,,,,,0.08,-272.71,-272.73,9,-7,-4,23.2,26.4,2.8,23.2,22.8,0.8,-1.68,-1.46,-20.1,28.5
2013-07-04 08:28:00,4.0,,,,,,,,,,,0.08,-272.72,-272.74,9,-7,-4,23.2,26.3,2.8,23.2,22.8,0.8,-1.68,-1.46,-20.0,28.6
2013-07-04 08:29:00,4.0,,,,,,,,,,,0.08,-272.72,-272.74,9,-7,-5,23.2,26.3,2.8,23.2,22.8,0.8,-1.68,-1.46,-19.8,28.6
2013-07-04 08:30:00,5.0,,,,,,,,,,,0.08,-272.71,-272.74,9,-7,-5,23.2,26.2,2.8,23.2,22.8,0.8,-1.68,-1.46,-19.7,28.5
2013-07-04 08:31:00,5.0,,,,,,,,,,,0.08,-272.72,-272.74,9,-7,-5,23.2,26.2,2.8,23.2,22.8,0.8,-1.68,-1.46,-19.6,28.6
2013-07-04 08:32:00,5.0,,,,,,,,,,,0.08,-272.71,-272.74,9,-7,-5,23.2,26.2,2.7,23.2,22.8,0.8,-1.68,-1.46,-19.5,28.7